FW0869 Weather Reports


Display with metric or nautical units.
time (UTC)temp
F
wind
direction
speed
MPH
gust
MPH
rain 1hr
in
rain 24hr
in
rain mn
in
humidity
%
barometer
mb
20260504215139 61 41 11.0 24.0 0.00 0.01 0.01 40 1010.5
20260504215053 61 35 12.0 24.0 0.00 0.01 0.01 39 1010.5
20260504215046 61 355 12.0 24.0 0.00 0.01 0.01 39 1010.4
20260504214736 61 306 13.0 24.0 0.00 0.01 0.01 39 1010.4
20260504214634 61 20 13.0 24.0 0.00 0.01 0.01 38 1010.4
20260504214600 61 303 13.0 24.0 0.00 0.01 0.01 38 1010.4
20260504214334 62 324 13.0 24.0 0.00 0.01 0.01 38 1010.4
20260504214235 62 355 13.0 24.0 0.00 0.01 0.01 37 1010.3
20260504214141 62 315 13.0 24.0 0.00 0.01 0.01 38 1010.3
20260504213935 62 344 12.0 24.0 0.00 0.01 0.01 36 1010.3
20260504213846 62 0 12.0 24.0 0.00 0.01 0.01 36 1010.2
20260504213835 62 5 12.0 24.0 0.00 0.01 0.01 36 1010.2
20260504213734 63 316 12.0 24.0 0.00 0.01 0.01 36 1010.3
20260504213634 63 34 11.0 24.0 0.00 0.01 0.01 37 1010.2
20260504213542 63 337 12.0 24.0 0.00 0.01 0.01 36 1010.2
20260504213347 63 349 11.0 22.0 0.00 0.01 0.01 36 1010.1
20260504213335 63 5 11.0 22.0 0.00 0.01 0.01 36 1010.1
20260504213234 63 71 12.0 22.0 0.00 0.01 0.01 35 1010.2
20260504213131 64 355 11.0 23.0 0.00 0.01 0.01 36 1010.1
20260504213101 64 347 11.0 23.0 0.00 0.01 0.01 35 1010.2
20260504212831 65 341 11.0 23.0 0.00 0.01 0.01 33 1010.2
20260504212730 65 15 10.0 23.0 0.00 0.01 0.01 33 1010.3
20260504212631 65 355 9.0 23.0 0.00 0.01 0.01 32 1010.3
20260504212531 66 332 9.0 23.0 0.00 0.01 0.01 33 1010.3
20260504212454 66 327 8.0 23.0 0.00 0.01 0.01 33 1010.3
20260504212336 66 13 7.0 23.0 0.00 0.01 0.01 32 1010.3
20260504212130 66 14 6.0 14.0 0.00 0.01 0.01 29 1010.1
20260504212030 66 65 6.0 14.0 0.00 0.01 0.01 30 1010.1
20260504211931 66 54 6.0 14.0 0.00 0.01 0.01 31 1010.1
20260504211848 66 77 6.0 10.0 0.00 0.01 0.01 29 1010.0
20260504211831 66 74 6.0 10.0 0.00 0.01 0.01 29 1010.0
20260504211731 66 53 5.0 10.0 0.00 0.01 0.01 31 1010.0
20260504211637 66 76 5.0 10.0 0.00 0.01 0.01 30 1010.0
20260504211430 66 64 5.0 10.0 0.00 0.01 0.01 30 1010.0
20260504211330 66 84 5.0 10.0 0.00 0.01 0.01 30 1010.0
20260504211227 66 88 5.0 10.0 0.00 0.01 0.01 29 1010.0
20260504211149 66 81 5.0 9.0 0.00 0.01 0.01 33 1010.0
20260504211142 66 103 5.0 9.0 0.00 0.01 0.01 31 1010.0
20260504210720 66 80 6.0 10.0 0.00 0.01 0.01 33 1010.0
20260504210626 65 58 6.0 10.0 0.00 0.01 0.01 33 1010.0
20260504210452 65 129 5.0 10.0 0.00 0.01 0.01 31 1010.0
20260504210318 65 107 6.0 10.0 0.00 0.01 0.01 31 1010.0
20260504210213 65 106 6.0 10.0 0.00 0.01 0.01 32 1010.1
20260504210113 65 77 5.0 10.0 0.00 0.01 0.01 32 1010.0
20260504210012 65 95 5.0 10.0 0.00 0.01 0.01 33 1010.1
20260504205912 65 126 5.0 10.0 0.00 0.01 0.01 32 1010.1
20260504205844 65 109 5.0 10.0 0.00 0.01 0.01 32 1010.2
20260504205810 65 129 5.0 10.0 0.00 0.01 0.01 32 1010.2
20260504205706 65 107 4.0 8.0 0.00 0.01 0.01 33 1010.2
20260504205605 65 109 4.0 8.0 0.00 0.01 0.01 33 1010.2
20260504205504 65 141 4.0 8.0 0.00 0.01 0.01 33 1010.2
20260504205453 65 123 4.0 8.0 0.00 0.01 0.01 35 1010.2
20260504205305 65 112 4.0 8.0 0.00 0.01 0.01 36 1010.2
20260504205157 65 105 4.0 8.0 0.00 0.01 0.01 36 1010.2
20260504205104 64 119 4.0 9.0 0.00 0.01 0.01 36 1010.2
20260504204857 64 148 4.0 9.0 0.00 0.01 0.01 36 1010.3
20260504204845 64 138 4.0 9.0 0.00 0.01 0.01 36 1010.3
20260504204755 64 128 4.0 9.0 0.00 0.01 0.01 38 1010.2
20260504204650 64 135 5.0 9.0 0.00 0.01 0.01 36 1010.2
20260504204549 64 128 4.0 9.0 0.00 0.01 0.01 36 1010.2
20260504204449 64 110 4.0 9.0 0.00 0.01 0.01 38 1010.2
20260504204351 64 143 4.0 9.0 0.00 0.01 0.01 36 1010.2
20260504204346 64 142 4.0 9.0 0.00 0.01 0.01 36 1010.2
20260504204250 64 126 4.0 9.0 0.00 0.01 0.01 36 1010.3
20260504204143 63 128 4.0 9.0 0.00 0.01 0.01 37 1010.3
20260504204044 63 110 4.0 8.0 0.00 0.01 0.01 38 1010.3
20260504203944 63 86 4.0 8.0 0.00 0.01 0.01 38 1010.3
20260504203859 63 117 4.0 8.0 0.00 0.01 0.01 39 1010.3
20260504203855 63 93 4.0 8.0 0.00 0.01 0.01 39 1010.3
20260504203538 63 115 4.0 8.0 0.00 0.01 0.01 40 1010.4
20260504203440 63 121 4.0 8.0 0.00 0.01 0.01 40 1010.5
20260504203344 63 154 4.0 8.0 0.00 0.01 0.01 40 1010.5
20260504203340 62 159 4.0 8.0 0.00 0.01 0.01 40 1010.5
20260504203236 62 160 4.0 8.0 0.00 0.01 0.01 41 1010.5
20260504203131 62 150 4.0 8.0 0.00 0.01 0.01 41 1010.5
20260504203057 62 121 4.0 10.0 0.00 0.01 0.01 41 1010.5
20260504202837 62 111 4.0 10.0 0.00 0.01 0.01 41 1010.5
20260504202627 62 115 4.0 10.0 0.00 0.01 0.01 40 1010.7
20260504202524 62 143 4.0 12.0 0.00 0.01 0.01 40 1010.8
20260504202425 62 126 4.0 12.0 0.00 0.01 0.01 41 1010.8
20260504202342 62 132 4.0 12.0 0.01 0.01 0.01 41 1010.8
20260504202325 62 146 4.0 12.0 0.01 0.01 0.01 41 1010.8
20260504202225 62 126 4.0 12.0 0.01 0.01 0.01 41 1010.9
20260504202024 62 121 5.0 12.0 0.01 0.01 0.01 41 1010.9
20260504201844 61 175 5.0 12.0 0.01 0.01 0.01 40 1011.0
20260504201817 61 153 5.0 12.0 0.01 0.01 0.01 40 1011.0
20260504201716 61 166 5.0 12.0 0.01 0.01 0.01 41 1011.0
20260504201620 61 162 6.0 12.0 0.01 0.01 0.01 41 1011.1
20260504201451 61 179 6.0 13.0 0.01 0.01 0.01 44 1011.1
20260504201314 61 185 7.0 14.0 0.01 0.01 0.01 45 1011.3
20260504201209 61 205 7.0 18.0 0.01 0.01 0.01 44 1011.3
20260504201111 60 144 8.0 18.0 0.01 0.01 0.01 42 1011.3
20260504200905 60 137 7.0 18.0 0.01 0.01 0.01 43 1011.3
20260504200841 60 126 7.0 18.0 0.01 0.01 0.01 43 1011.3
20260504200803 60 115 7.0 18.0 0.01 0.01 0.01 43 1011.3
20260504200702 60 113 7.0 18.0 0.01 0.01 0.01 43 1011.4
20260504200559 60 131 7.0 18.0 0.01 0.01 0.01 42 1011.5
20260504200459 60 134 7.0 18.0 0.01 0.01 0.01 44 1011.5
20260504200443 60 175 7.0 18.0 0.01 0.01 0.01 48 1011.6
20260504200258 60 198 6.0 18.0 0.01 0.01 0.01 49 1011.4
20260504200158 60 200 6.0 13.0 0.01 0.01 0.01 51 1011.4
20260504195951 59 194 7.0 15.0 0.01 0.01 0.01 54 1011.4
20260504195850 59 178 7.0 15.0 0.01 0.01 0.01 50 1011.4
20260504195831 59 186 7.0 15.0 0.01 0.01 0.01 50 1011.4
20260504195751 59 180 7.0 15.0 0.01 0.01 0.01 52 1011.3
20260504195652 59 159 7.0 15.0 0.01 0.01 0.01 50 1011.3
20260504195559 59 116 8.0 15.0 0.01 0.01 0.01 48 1011.3
20260504195325 59 90 8.0 18.0 0.01 0.01 0.01 50 1011.3
20260504195246 58 163 7.0 18.0 0.01 0.01 0.01 49 1011.1
20260504195144 58 128 8.0 18.0 0.01 0.01 0.01 51 1011.1
20260504195041 58 123 8.0 18.0 0.01 0.01 0.01 51 1011.3
20260504194940 58 133 9.0 18.0 0.01 0.01 0.01 51 1011.0
20260504194838 58 133 9.0 18.0 0.01 0.01 0.01 51 1011.0
20260504194819 58 167 9.0 18.0 0.01 0.01 0.01 53 1011.0
20260504194739 58 143 9.0 18.0 0.01 0.01 0.01 52 1011.0
20260504194638 58 108 9.0 18.0 0.01 0.01 0.01 53 1011.1
20260504194534 58 131 9.0 18.0 0.01 0.01 0.01 55 1011.1
20260504194433 58 120 9.0 16.0 0.01 0.01 0.01 55 1011.0
20260504194333 58 148 9.0 16.0 0.01 0.01 0.01 51 1011.1
20260504194312 58 113 9.0 16.0 0.01 0.01 0.01 51 1011.1
20260504194232 58 84 10.0 18.0 0.01 0.01 0.01 50 1011.0
20260504194132 58 122 10.0 18.0 0.01 0.01 0.01 52 1011.0
20260504194029 58 123 10.0 18.0 0.01 0.01 0.01 53 1011.0
20260504194001 58 115 10.0 18.0 0.01 0.01 0.01 56 1011.0
20260504193954 58 138 10.0 18.0 0.01 0.01 0.01 55 1011.1
20260504193332 59 140 12.0 26.0 0.01 0.01 0.01 49 1011.1
20260504193325 59 182 12.0 29.0 0.01 0.01 0.01 49 1011.1
20260504193123 59 181 13.0 29.0 0.01 0.01 0.01 49 1011.1
20260504192915 60 138 14.0 30.0 0.01 0.01 0.01 45 1011.1
20260504192826 60 155 15.0 30.0 0.01 0.01 0.01 44 1011.1
20260504192820 60 170 15.0 30.0 0.01 0.01 0.01 43 1011.1
20260504192615 61 123 16.0 30.0 0.01 0.01 0.01 44 1010.9
20260504192509 62 150 16.0 30.0 0.01 0.01 0.01 44 1010.9
20260504192409 62 210 15.0 30.0 0.00 0.00 0.01 43 1011.0
20260504192311 63 180 15.0 30.0 0.00 0.00 0.00 40 1010.8
20260504192304 63 182 15.0 30.0 0.00 0.00 0.00 40 1010.8
20260504192210 64 164 15.0 30.0 0.00 0.00 0.00 37 1010.9
20260504192111 64 186 14.0 30.0 0.00 0.00 0.00 36 1010.9
20260504191905 65 190 13.0 30.0 0.00 0.00 0.00 33 1010.8
20260504191810 66 195 12.0 30.0 0.00 0.00 0.00 30 1010.9
20260504191805 66 121 12.0 30.0 0.00 0.00 0.00 30 1010.9
20260504191706 66 188 11.0 24.0 0.00 0.00 0.00 27 1010.9
20260504191603 66 167 10.0 21.0 0.00 0.00 0.00 27 1010.8
20260504191458 67 159 9.0 21.0 0.00 0.00 0.00 26 1010.8
20260504191357 67 146 9.0 21.0 0.00 0.00 0.00 25 1010.9
20260504191304 67 131 8.0 21.0 0.00 0.00 0.00 24 1010.8
20260504191256 67 132 8.0 21.0 0.00 0.00 0.00 24 1010.8
20260504191158 67 136 7.0 20.0 0.00 0.00 0.00 23 1010.8
20260504191056 67 117 6.0 20.0 0.00 0.00 0.00 22 1010.4
20260504191008 68 144 5.0 20.0 0.00 0.00 0.00 24 1010.4
20260504190854 68 146 4.0 11.0 0.00 0.00 0.00 23 1010.3
20260504190658 68 206 5.0 9.0 0.00 0.00 0.00 23 1010.2
20260504190445 68 268 5.0 12.0 0.00 0.00 0.00 24 1010.2
20260504190346 68 300 5.0 12.0 0.00 0.00 0.00 24 1010.1
20260504190303 68 225 5.0 12.0 0.00 0.00 0.00 23 1010.1
20260504190245 68 306 6.0 12.0 0.00 0.00 0.00 23 1010.1
20260504190153 68 252 6.0 12.0 0.00 0.00 0.00 24 1010.1
20260504185850 68 247 7.0 12.0 0.00 0.00 0.00 24 1010.1
20260504185843 68 280 7.0 12.0 0.00 0.00 0.00 24 1010.1
20260504185639 68 264 7.0 15.0 0.00 0.00 0.00 24 1010.1
20260504185538 68 294 7.0 15.0 0.00 0.00 0.00 24 1010.0
20260504185435 69 290 7.0 15.0 0.00 0.00 0.00 24 1010.0
20260504185335 69 291 7.0 15.0 0.00 0.00 0.00 23 1010.0
20260504185301 69 300 7.0 15.0 0.00 0.00 0.00 23 1010.0
20260504185242 69 296 7.0 15.0 0.00 0.00 0.00 23 1010.0
20260504185036 69 273 7.0 15.0 0.00 0.00 0.00 23 1009.8
20260504184907 69 348 6.0 15.0 0.00 0.00 0.00 23 1009.8
20260504184727 69 324 6.0 15.0 0.00 0.00 0.00 24 1010.0
20260504184627 69 281 6.0 13.0 0.00 0.00 0.00 23 1010.0
20260504184525 69 300 6.0 14.0 0.00 0.00 0.00 22 1010.0
20260504184423 69 329 6.0 15.0 0.00 0.00 0.00 22 1009.8
20260504184323 69 283 6.0 15.0 0.00 0.00 0.00 22 1009.8
20260504184300 69 331 6.0 15.0 0.00 0.00 0.00 22 1009.8
20260504184230 69 348 5.0 15.0 0.00 0.00 0.00 22 1009.8
20260504184023 69 355 6.0 15.0 0.00 0.00 0.00 22 1009.8
20260504183907 69 355 6.0 15.0 0.00 0.00 0.00 22 1009.8
20260504183715 69 338 6.0 15.0 0.00 0.00 0.00 22 1009.8
20260504183616 69 355 6.0 15.0 0.00 0.00 0.00 22 1009.8
20260504183519 69 17 5.0 15.0 0.00 0.00 0.00 23 1010.0
20260504183310 69 22 4.0 12.0 0.00 0.00 0.00 23 1009.8
20260504183301 69 16 4.0 12.0 0.00 0.00 0.00 23 1009.8
20260504183216 69 5 4.0 12.0 0.00 0.00 0.00 23 1010.0
20260504183008 69 13 4.0 13.0 0.00 0.00 0.00 23 1010.0
20260504182904 69 42 4.0 13.0 0.00 0.00 0.00 21 1010.0
20260504182803 69 24 4.0 13.0 0.00 0.00 0.00 23 1010.0
20260504182704 69 24 4.0 13.0 0.00 0.00 0.00 22 1010.0
20260504182603 69 339 5.0 13.0 0.00 0.00 0.00 23 1010.0
20260504182502 69 339 5.0 13.0 0.00 0.00 0.00 21 1010.0
20260504182410 69 339 5.0 13.0 0.00 0.00 0.00 22 1010.0
20260504182258 69 5 6.0 13.0 0.00 0.00 0.00 21 1010.1
20260504182157 69 325 6.0 13.0 0.00 0.00 0.00 24 1010.1
20260504182056 69 17 6.0 13.0 0.00 0.00 0.00 22 1010.1
20260504181956 69 327 7.0 13.0 0.00 0.00 0.00 22 1010.1
20260504181853 69 323 7.0 15.0 0.00 0.00 0.00 22 1010.1
20260504181758 69 5 7.0 15.0 0.00 0.00 0.00 22 1010.1
20260504181753 69 355 7.0 15.0 0.00 0.00 0.00 22 1010.1
20260504181654 69 322 7.0 15.0 0.00 0.00 0.00 23 1010.1
20260504181553 69 5 7.0 15.0 0.00 0.00 0.00 23 1010.1
20260504181506 69 11 7.0 17.0 0.00 0.00 0.00 23 1010.1
20260504181351 69 321 7.0 17.0 0.00 0.00 0.00 24 1010.1
20260504181144 69 24 7.0 17.0 0.00 0.00 0.00 24 1010.2
20260504181050 69 21 7.0 17.0 0.00 0.00 0.00 23 1010.2
20260504180900 69 296 7.0 17.0 0.00 0.00 0.00 24 1010.2
20260504180739 69 332 8.0 17.0 0.00 0.00 0.00 24 1010.3
20260504180650 69 329 9.0 17.0 0.00 0.00 0.00 24 1010.3
20260504180331 69 269 9.0 15.0 0.00 0.00 0.00 23 1010.3
20260504180252 69 284 10.0 15.0 0.00 0.00 0.00 23 1010.3
20260504180231 69 290 10.0 15.0 0.00 0.00 0.00 22 1010.3
20260504180132 69 333 10.0 15.0 0.00 0.00 0.00 23 1010.3
20260504180031 69 296 10.0 15.0 0.00 0.00 0.00 23 1010.4
20260504175930 69 274 9.0 15.0 0.00 0.00 0.00 24 1010.4
20260504175854 69 277 10.0 18.0 0.00 0.00 0.00 23 1010.4
20260504175724 69 290 9.0 18.0 0.00 0.00 0.00 24 1010.4
20260504175624 69 324 9.0 18.0 0.00 0.00 0.00 24 1010.4
20260504175535 69 355 9.0 18.0 0.00 0.00 0.00 25 1010.4
20260504175240 70 333 10.0 18.0 0.00 0.00 0.00 23 1010.4
20260504175227 69 338 10.0 18.0 0.00 0.00 0.00 24 1010.4
20260504175018 70 340 10.0 18.0 0.00 0.00 0.00 23 1010.5
20260504174918 70 304 11.0 18.0 0.00 0.00 0.00 23 1010.5
20260504174834 70 324 10.0 16.0 0.00 0.00 0.00 23 1010.5
20260504174826 70 335 10.0 16.0 0.00 0.00 0.00 23 1010.5
20260504174515 70 320 10.0 16.0 0.00 0.00 0.00 23 1010.7
20260504174411 70 300 10.0 15.0 0.00 0.00 0.00 23 1010.7
20260504174307 71 265 9.0 15.0 0.00 0.00 0.00 24 1010.7
20260504174228 71 328 9.0 15.0 0.00 0.00 0.00 23 1010.7
20260504174214 71 315 9.0 15.0 0.00 0.00 0.00 23 1010.7
20260504174007 71 288 9.0 17.0 0.00 0.00 0.00 23 1010.7
20260504173906 71 319 9.0 17.0 0.00 0.00 0.00 23 1010.8
20260504173800 71 279 9.0 17.0 0.00 0.00 0.00 23 1010.8
20260504173721 71 338 10.0 17.0 0.00 0.00 0.00 24 1010.8
20260504173701 71 290 10.0 17.0 0.00 0.00 0.00 24 1010.8
20260504173601 71 261 10.0 17.0 0.00 0.00 0.00 25 1010.9
20260504173501 71 318 10.0 17.0 0.00 0.00 0.00 25 1010.9
20260504173430 71 325 11.0 17.0 0.00 0.00 0.00 24 1010.9
20260504173155 71 343 11.0 17.0 0.00 0.00 0.00 23 1011.0
20260504173055 71 336 11.0 17.0 0.00 0.00 0.00 23 1011.0
20260504172955 71 306 11.0 17.0 0.00 0.00 0.00 23 1011.0
20260504172855 71 308 10.0 17.0 0.00 0.00 0.00 23 1011.1
20260504172748 71 292 10.0 17.0 0.00 0.00 0.00 25 1011.1
20260504172710 71 279 10.0 17.0 0.00 0.00 0.00 23 1011.1
20260504172648 71 306 10.0 17.0 0.00 0.00 0.00 23 1011.1
20260504172548 71 328 10.0 17.0 0.00 0.00 0.00 23 1011.1
20260504172449 71 279 10.0 17.0 0.00 0.00 0.00 24 1011.1
20260504172348 71 304 10.0 17.0 0.00 0.00 0.00 25 1011.1
20260504172244 71 277 10.0 19.0 0.00 0.00 0.00 24 1011.1
20260504172205 71 315 10.0 19.0 0.00 0.00 0.00 24 1011.1
20260504172145 70 284 10.0 19.0 0.00 0.00 0.00 24 1011.1
20260504172046 70 263 10.0 19.0 0.00 0.00 0.00 24 1011.1
20260504171944 70 282 10.0 19.0 0.00 0.00 0.00 23 1011.1
20260504171842 70 309 10.0 19.0 0.00 0.00 0.00 24 1011.1
20260504171747 70 304 10.0 19.0 0.00 0.00 0.00 24 1011.3
20260504171740 70 259 10.0 19.0 0.00 0.00 0.00 24 1011.3
20260504171537 70 294 10.0 19.0 0.00 0.00 0.00 24 1011.3
20260504171443 70 306 11.0 19.0 0.00 0.00 0.00 24 1011.3
20260504171231 70 346 10.0 20.0 0.00 0.00 0.00 24 1011.3
20260504171152 70 331 10.0 20.0 0.00 0.00 0.00 25 1011.3
20260504171131 70 301 10.0 20.0 0.00 0.00 0.00 25 1011.3
20260504171031 69 319 10.0 20.0 0.00 0.00 0.00 24 1011.4
20260504170932 69 284 10.0 20.0 0.00 0.00 0.00 25 1011.4
20260504170830 69 289 10.0 20.0 0.00 0.00 0.00 25 1011.3
20260504170728 69 244 10.0 20.0 0.00 0.00 0.00 24 1011.4
20260504170645 69 278 10.0 20.0 0.00 0.00 0.00 24 1011.4
20260504170624 69 300 10.0 20.0 0.00 0.00 0.00 24 1011.4
20260504170525 69 291 10.0 20.0 0.00 0.00 0.00 24 1011.3
20260504170425 69 308 10.0 20.0 0.00 0.00 0.00 24 1011.3
20260504170325 69 318 10.0 20.0 0.00 0.00 0.00 24 1011.4
20260504170219 69 304 9.0 20.0 0.00 0.00 0.00 25 1011.3
20260504170140 69 345 10.0 18.0 0.00 0.00 0.00 26 1011.4
20260504170118 69 323 10.0 18.0 0.00 0.00 0.00 26 1011.4
20260504160312 64 252 9.0 15.0 0.00 0.00 0.00 29 1012.0
20260504160213 64 244 9.0 15.0 0.00 0.00 0.00 28 1012.1
20260504151122 63 203 1.0 4.0 0.00 0.00 0.00 30 1012.1
20260504150928 63 211 1.0 4.0 0.00 0.00 0.00 28 1012.1
20260504150915 63 211 1.0 4.0 0.00 0.00 0.00 30 1012.1
20260504150814 63 240 1.0 4.0 0.00 0.00 0.00 29 1012.1
20260504150713 63 284 2.0 4.0 0.00 0.00 0.00 31 1012.1
20260504150611 63 177 2.0 4.0 0.00 0.00 0.00 30 1012.1
20260504150511 63 253 2.0 6.0 0.00 0.00 0.00 31 1012.2
20260504150422 63 253 2.0 7.0 0.00 0.00 0.00 31 1012.2
20260504150416 63 253 2.0 7.0 0.00 0.00 0.00 29 1012.2
20260504150207 63 253 3.0 7.0 0.00 0.00 0.00 30 1012.1
20260504150104 63 255 3.0 7.0 0.00 0.00 0.00 29 1012.2
20260504141322 59 253 5.0 10.0 0.00 0.00 0.00 29 1012.2
20260504141301 59 278 5.0 10.0 0.00 0.00 0.00 29 1012.2
20260504141201 59 275 5.0 10.0 0.00 0.00 0.00 28 1012.3
20260504141100 58 262 5.0 10.0 0.00 0.00 0.00 29 1012.2
20260504141000 58 261 5.0 9.0 0.00 0.00 0.00 29 1012.2
20260504140855 58 262 4.0 9.0 0.00 0.00 0.00 30 1012.2
20260504140816 58 271 4.0 9.0 0.00 0.00 0.00 30 1012.2
20260504140801 58 292 4.0 8.0 0.00 0.00 0.00 30 1012.2
20260504140554 58 265 4.0 8.0 0.00 0.00 0.00 30 1012.2
20260504140454 57 265 4.0 8.0 0.00 0.00 0.00 31 1012.2
20260504140348 57 263 3.0 8.0 0.00 0.00 0.00 30 1012.2
20260504140309 57 283 3.0 8.0 0.00 0.00 0.00 31 1012.2
20260504140249 57 284 3.0 8.0 0.00 0.00 0.00 31 1012.2
20260504140155 57 243 3.0 8.0 0.00 0.00 0.00 31 1012.3
20260504130758 53 186 4.0 13.0 0.00 0.00 0.00 31 1011.9
20260504130717 53 277 4.0 13.0 0.00 0.00 0.00 31 1011.9
20260504130658 53 256 4.0 13.0 0.00 0.00 0.00 32 1011.9
20260504130558 53 279 4.0 13.0 0.00 0.00 0.00 33 1011.9
20260504130459 53 259 3.0 13.0 0.00 0.00 0.00 33 1011.9
20260504130359 52 313 3.0 7.0 0.00 0.00 0.00 34 1011.9
20260504130259 52 269 3.0 7.0 0.00 0.00 0.00 33 1011.9
20260504130217 52 261 3.0 7.0 0.00 0.00 0.00 33 1011.7
20260504130158 52 321 3.0 7.0 0.00 0.00 0.00 32 1011.7
20260504120310 45 207 1.0 3.0 0.00 0.00 0.00 43 1011.4
20260504120210 45 207 1.0 3.0 0.00 0.00 0.00 43 1011.4
20260504120107 45 207 1.0 3.0 0.00 0.00 0.00 43 1011.4
20260504110644 43 225 1.0 2.0 0.00 0.00 0.00 46 1011.9
20260504110552 43 225 1.0 2.0 0.00 0.00 0.00 46 1011.7
20260504110344 43 225 1.0 2.0 0.00 0.00 0.00 46 1011.9
20260504110255 43 225 1.0 2.0 0.00 0.00 0.00 46 1011.9
20260504110248 44 225 1.0 3.0 0.00 0.00 0.00 45 1011.9
20260504100532 44 203 3.0 4.0 0.00 0.00 0.00 45 1012.2
20260504100431 44 203 3.0 4.0 0.00 0.00 0.00 45 1012.2
20260504100328 44 203 3.0 6.0 0.00 0.00 0.00 45 1012.2
20260504100226 44 203 3.0 6.0 0.00 0.00 0.00 45 1012.2
20260504100127 44 203 3.0 6.0 0.00 0.00 0.00 45 1012.2
20260504090123 45 208 2.0 3.0 0.00 0.00 0.00 44 1012.6
20260504090109 45 208 2.0 3.0 0.00 0.00 0.00 44 1012.6
20260504081936 46 208 2.0 4.0 0.00 0.00 0.00 44 1012.9
20260504081512 46 208 2.0 4.0 0.00 0.00 0.00 44 1012.9
20260504081409 46 208 2.0 4.0 0.00 0.00 0.00 44 1013.0
20260504081310 46 208 2.0 4.0 0.00 0.00 0.00 43 1012.9
20260504081249 46 208 2.0 4.0 0.00 0.00 0.00 44 1013.0
20260504081134 47 205 1.0 4.0 0.00 0.00 0.00 44 1013.0
20260504080701 47 321 1.0 3.0 0.00 0.00 0.00 44 1013.0
20260504080556 47 321 1.0 3.0 0.00 0.00 0.00 43 1013.0
20260504080516 47 321 1.0 3.0 0.00 0.00 0.00 43 1013.0
20260504080456 47 321 1.0 3.0 0.00 0.00 0.00 43 1013.0
20260504080403 47 321 1.0 2.0 0.00 0.00 0.00 43 1013.2
20260504080155 47 321 1.0 3.0 0.00 0.00 0.00 43 1013.2
20260504070408 53 355 3.0 8.0 0.00 0.00 0.00 38 1013.5
20260504070350 53 355 3.0 8.0 0.00 0.00 0.00 38 1013.5
20260504070207 53 331 4.0 8.0 0.00 0.00 0.00 38 1013.5
20260504060232 57 308 9.0 14.0 0.00 0.00 0.00 30 1013.5
20260504060131 57 300 9.0 14.0 0.00 0.00 0.00 30 1013.5
20260504050724 60 246 7.0 14.0 0.00 0.00 0.00 27 1013.4
20260504050622 60 234 7.0 14.0 0.00 0.00 0.00 27 1013.4
20260504050522 60 252 7.0 14.0 0.00 0.00 0.00 26 1013.4
20260504050422 60 239 8.0 14.0 0.00 0.00 0.00 27 1013.5
20260504050341 60 269 8.0 14.0 0.00 0.00 0.00 27 1013.5
20260504050321 60 241 8.0 14.0 0.00 0.00 0.00 27 1013.5
20260504050216 60 267 7.0 14.0 0.00 0.00 0.00 26 1013.5
20260504050123 60 258 7.0 13.0 0.00 0.00 0.00 27 1013.5
20260504045925 60 241 7.0 13.0 0.00 0.00 0.00 27 1013.4
20260504045918 60 266 7.0 13.0 0.00 0.00 0.00 27 1013.5
20260504045708 60 244 7.0 13.0 0.00 0.00 0.00 27 1013.5
20260504045607 60 298 7.0 13.0 0.00 0.00 0.00 27 1013.5
20260504045508 60 236 7.0 13.0 0.00 0.00 0.00 27 1013.5
20260504045448 60 259 7.0 13.0 0.00 0.00 0.00 26 1013.5
20260504045308 60 254 6.0 11.0 0.00 0.00 0.00 27 1013.5
20260504045202 60 253 7.0 11.0 0.00 0.00 0.00 27 1013.5
20260504045102 60 250 7.0 11.0 0.00 0.00 0.00 27 1013.6
20260504045002 60 250 7.0 11.0 0.00 0.00 0.00 26 1013.5
20260504044913 60 286 7.0 11.0 0.00 0.00 0.00 27 1013.5
20260504044906 60 267 7.0 11.0 0.00 0.00 0.00 27 1013.5
20260504044656 60 265 7.0 11.0 0.00 0.00 0.00 27 1013.6
20260504044603 60 238 7.0 11.0 0.00 0.00 0.00 27 1013.6
20260504044356 60 250 7.0 11.0 0.00 0.00 0.00 27 1013.6
20260504044341 60 268 7.0 11.0 0.00 0.00 0.00 27 1013.6
20260504044304 60 269 7.0 11.0 0.00 0.00 0.00 27 1013.6
20260504043950 60 223 7.0 11.0 0.00 0.00 0.00 27 1013.6
20260504043851 60 243 7.0 11.0 0.00 0.00 0.00 27 1013.6
20260504043841 60 228 7.0 11.0 0.00 0.00 0.00 27 1013.6
20260504043750 60 240 7.0 11.0 0.00 0.00 0.00 27 1013.6
20260504043645 61 284 6.0 11.0 0.00 0.00 0.00 27 1013.6
20260504043543 61 270 6.0 11.0 0.00 0.00 0.00 27 1013.6
20260504043456 61 254 6.0 12.0 0.00 0.00 0.00 27 1013.6
20260504043345 61 277 6.0 12.0 0.00 0.00 0.00 27 1013.6
20260504043243 61 258 6.0 12.0 0.00 0.00 0.00 27 1013.6
20260504043138 61 244 6.0 12.0 0.00 0.00 0.00 27 1013.6
20260504043038 61 275 6.0 12.0 0.00 0.00 0.00 27 1013.5
20260504042949 61 244 6.0 12.0 0.00 0.00 0.00 27 1013.5
20260504042838 61 273 6.0 12.0 0.00 0.00 0.00 27 1013.6
20260504042738 61 252 6.0 12.0 0.00 0.00 0.00 26 1013.5
20260504042632 61 257 6.0 12.0 0.00 0.00 0.00 26 1013.6
20260504042532 61 265 6.0 11.0 0.00 0.00 0.00 26 1013.6
20260504042431 61 231 6.0 11.0 0.00 0.00 0.00 26 1013.6
20260504042342 61 284 6.0 11.0 0.00 0.00 0.00 27 1013.6
20260504042332 61 254 6.0 11.0 0.00 0.00 0.00 27 1013.6
20260504042231 61 254 6.0 11.0 0.00 0.00 0.00 27 1013.6
20260504042126 61 236 6.0 11.0 0.00 0.00 0.00 27 1013.6
20260504042026 61 247 6.0 11.0 0.00 0.00 0.00 27 1013.6
20260504041927 61 255 6.0 11.0 0.00 0.00 0.00 26 1013.6
20260504041841 61 253 6.0 11.0 0.00 0.00 0.00 26 1013.5
20260504041825 61 299 6.0 11.0 0.00 0.00 0.00 27 1013.5
20260504041725 61 252 6.0 11.0 0.00 0.00 0.00 27 1013.6
20260504041622 61 287 6.0 11.0 0.00 0.00 0.00 27 1013.7
20260504041522 61 264 6.0 11.0 0.00 0.00 0.00 27 1013.6
20260504041422 61 267 6.0 11.0 0.00 0.00 0.00 27 1013.6
20260504041341 61 261 6.0 11.0 0.00 0.00 0.00 27 1013.6
20260504041323 61 277 6.0 11.0 0.00 0.00 0.00 27 1013.6
20260504041219 61 261 6.0 11.0 0.00 0.00 0.00 27 1013.7
20260504041114 61 289 6.0 13.0 0.00 0.00 0.00 27 1013.6
20260504041014 61 234 6.0 13.0 0.00 0.00 0.00 27 1013.7
20260504040914 61 271 6.0 13.0 0.00 0.00 0.00 27 1013.7
20260504040842 61 264 6.0 13.0 0.00 0.00 0.00 27 1013.7
20260504040813 61 251 6.0 13.0 0.00 0.00 0.00 27 1013.7
20260504040714 61 245 6.0 13.0 0.00 0.00 0.00 27 1013.7
20260504040515 61 261 7.0 13.0 0.00 0.00 0.00 28 1013.9
20260504040339 61 285 7.0 13.0 0.00 0.00 0.00 28 1013.9
20260504040308 61 237 7.0 13.0 0.00 0.00 0.00 28 1013.9
20260504040207 61 254 7.0 12.0 0.00 0.00 0.00 28 1014.0
20260504040100 62 279 7.0 12.0 0.00 0.00 0.00 28 1014.0
20260504035959 62 251 8.0 13.0 0.00 0.00 0.00 28 1014.0
20260504035900 62 279 8.0 13.0 0.00 0.00 0.00 28 1014.0
20260504035838 62 294 8.0 13.0 0.00 0.00 0.00 28 1013.9
20260504035800 62 250 8.0 13.0 0.00 0.00 0.00 28 1013.9
20260504035658 62 316 8.0 13.0 0.00 0.00 0.00 28 1014.0
20260504035554 62 284 8.0 13.0 0.00 0.00 0.00 27 1014.1
20260504035453 62 288 8.0 13.0 0.00 0.00 0.00 27 1014.0
20260504035354 62 295 8.0 13.0 0.00 0.00 0.00 27 1014.1
20260504035333 62 282 8.0 13.0 0.00 0.00 0.00 27 1014.1
20260504035254 62 305 8.0 13.0 0.00 0.00 0.00 27 1014.1
20260504035156 62 273 8.0 13.0 0.00 0.00 0.00 27 1014.0
20260504034948 62 269 8.0 12.0 0.00 0.00 0.00 27 1014.1
20260504034848 62 277 8.0 14.0 0.00 0.00 0.00 27 1014.0
20260504034827 62 258 8.0 14.0 0.00 0.00 0.00 28 1014.0
20260504034748 62 296 8.0 14.0 0.00 0.00 0.00 28 1014.1
20260504034649 62 283 8.0 14.0 0.00 0.00 0.00 27 1014.1
20260504034441 62 239 8.0 14.0 0.00 0.00 0.00 27 1014.1
20260504034341 62 259 8.0 14.0 0.00 0.00 0.00 27 1014.1
20260504034321 62 263 8.0 14.0 0.00 0.00 0.00 27 1014.1
20260504034242 62 224 8.0 14.0 0.00 0.00 0.00 27 1014.1
20260504034141 62 231 8.0 14.0 0.00 0.00 0.00 27 1014.1
20260504034042 62 238 8.0 14.0 0.00 0.00 0.00 27 1014.1
20260504033846 62 250 8.0 14.0 0.00 0.00 0.00 27 1014.1
20260504033840 62 240 8.0 14.0 0.00 0.00 0.00 27 1014.1
20260504033638 62 239 9.0 14.0 0.00 0.00 0.00 27 1014.1
20260504033430 62 263 8.0 14.0 0.00 0.00 0.00 28 1014.0
20260504033330 62 234 8.0 15.0 0.00 0.00 0.00 27 1014.1
20260504033308 62 238 8.0 15.0 0.00 0.00 0.00 27 1014.1
20260504033230 62 265 8.0 15.0 0.00 0.00 0.00 27 1014.0
20260504033139 62 234 8.0 15.0 0.00 0.00 0.00 28 1014.1
20260504032910 61 265 8.0 15.0 0.00 0.00 0.00 28 1014.1
20260504032724 61 229 8.0 15.0 0.00 0.00 0.00 28 1014.1
20260504032624 61 297 8.0 15.0 0.00 0.00 0.00 28 1014.1
20260504032518 61 228 8.0 15.0 0.00 0.00 0.00 28 1014.1
20260504032424 61 263 8.0 15.0 0.00 0.00 0.00 28 1014.1
20260504032257 61 243 8.0 15.0 0.00 0.00 0.00 28 1014.1
20260504032218 61 246 8.0 15.0 0.00 0.00 0.00 28 1014.1
20260504032117 61 240 8.0 15.0 0.00 0.00 0.00 28 1014.1
20260504032012 61 281 8.0 15.0 0.00 0.00 0.00 28 1014.1
20260504031913 61 252 7.0 15.0 0.00 0.00 0.00 28 1014.1
20260504031812 61 221 7.0 15.0 0.00 0.00 0.00 28 1014.1
20260504031750 61 244 7.0 15.0 0.00 0.00 0.00 28 1014.0
20260504031712 61 241 7.0 15.0 0.00 0.00 0.00 29 1014.0
20260504031611 60 284 6.0 15.0 0.00 0.00 0.00 29 1014.1
20260504031514 60 254 5.0 15.0 0.00 0.00 0.00 28 1014.0
20260504031351 60 256 4.0 11.0 0.00 0.00 0.00 29 1014.0
20260504031213 60 233 4.0 11.0 0.00 0.00 0.00 29 1014.0
20260504031001 60 229 3.0 10.0 0.00 0.00 0.00 30 1014.1
20260504030900 60 266 3.0 7.0 0.00 0.00 0.00 31 1014.1
20260504030810 60 200 3.0 7.0 0.00 0.00 0.00 31 1014.1
20260504030803 60 234 3.0 7.0 0.00 0.00 0.00 31 1014.1
20260504030559 60 222 3.0 7.0 0.00 0.00 0.00 31 1014.0
20260504030454 60 196 3.0 7.0 0.00 0.00 0.00 31 1014.0
20260504030354 60 200 3.0 7.0 0.00 0.00 0.00 31 1014.1
20260504030254 60 210 3.0 7.0 0.00 0.00 0.00 32 1014.0
20260504030234 60 211 3.0 7.0 0.00 0.00 0.00 32 1014.0
20260504030154 60 184 3.0 7.0 0.00 0.00 0.00 32 1014.0
20260504030053 60 215 3.0 7.0 0.00 0.00 0.00 32 1014.0
20260504025948 60 204 2.0 7.0 0.00 0.00 0.00 31 1014.0
20260504025848 60 190 2.0 7.0 0.00 0.00 0.00 30 1014.0
20260504025726 60 195 2.0 7.0 0.00 0.00 0.00 30 1014.0
20260504025649 60 195 3.0 7.0 0.00 0.00 0.00 30 1014.0
20260504025547 60 242 2.0 7.0 0.00 0.00 0.00 30 1014.0
20260504025441 60 205 2.0 7.0 0.00 0.00 0.00 30 1014.0
20260504025350 60 201 3.0 7.0 0.00 0.00 0.00 30 1014.0
20260504025221 60 214 3.0 7.0 0.00 0.00 0.00 30 1014.0
20260504025141 60 213 3.0 7.0 0.00 0.00 0.00 31 1014.0
20260504025044 60 213 3.0 7.0 0.00 0.00 0.00 31 1013.9
20260504024842 60 215 3.0 7.0 0.00 0.00 0.00 30 1014.0
20260504024714 60 242 3.0 7.0 0.00 0.00 0.00 31 1014.0
20260504024645 60 259 3.0 7.0 0.00 0.00 0.00 30 1013.9
20260504024333 60 198 3.0 7.0 0.00 0.00 0.00 30 1013.9
20260504024232 60 188 3.0 7.0 0.00 0.00 0.00 30 1013.9
20260504024208 60 223 3.0 7.0 0.00 0.00 0.00 30 1013.9
20260504024132 60 223 3.0 7.0 0.00 0.00 0.00 30 1014.0
20260504024029 60 246 3.0 7.0 0.00 0.00 0.00 30 1013.9
20260504023924 60 248 3.0 8.0 0.00 0.00 0.00 30 1013.9
20260504023831 61 259 4.0 8.0 0.00 0.00 0.00 30 1013.9
20260504023703 61 245 4.0 10.0 0.00 0.00 0.00 30 1014.0
20260504023624 61 236 4.0 10.0 0.00 0.00 0.00 30 1014.0
20260504023527 61 236 4.0 10.0 0.00 0.00 0.00 30 1013.9
20260504023318 61 198 4.0 10.0 0.00 0.00 0.00 31 1013.9
20260504023303 61 220 4.0 10.0 0.00 0.00 0.00 31 1013.9
20260504023118 61 194 4.0 10.0 0.00 0.00 0.00 31 1013.9
20260504023017 61 168 4.0 10.0 0.00 0.00 0.00 30 1013.9
20260504022920 61 186 4.0 10.0 0.00 0.00 0.00 31 1014.0
20260504022712 61 220 4.0 9.0 0.00 0.00 0.00 31 1014.0
20260504022652 61 205 4.0 9.0 0.00 0.00 0.00 31 1014.0
20260504022618 61 208 4.0 9.0 0.00 0.00 0.00 31 1014.0
20260504022407 61 191 4.0 9.0 0.00 0.00 0.00 30 1014.1
20260504022307 61 201 4.0 9.0 0.00 0.00 0.00 31 1014.0
20260504022207 62 213 3.0 9.0 0.00 0.00 0.00 31 1014.0
20260504022144 62 202 3.0 9.0 0.00 0.00 0.00 31 1014.0
20260504022106 62 214 3.0 9.0 0.00 0.00 0.00 30 1014.0
20260504022007 62 207 3.0 9.0 0.00 0.00 0.00 30 1014.0
20260504021825 62 178 3.0 9.0 0.00 0.00 0.00 30 1014.1
20260504021712 62 197 2.0 6.0 0.00 0.00 0.00 29 1014.1
20260504021353 62 219 2.0 7.0 0.00 0.00 0.00 29 1014.1
20260504021253 62 236 2.0 7.0 0.00 0.00 0.00 28 1014.1
20260504021134 62 205 3.0 7.0 0.00 0.00 0.00 28 1014.1
20260504021054 62 233 3.0 7.0 0.00 0.00 0.00 28 1014.1
20260504020958 62 224 3.0 7.0 0.00 0.00 0.00 28 1014.1
20260504020806 63 230 3.0 7.0 0.00 0.00 0.00 28 1014.0
20260504020758 63 227 3.0 7.0 0.00 0.00 0.00 28 1014.0
20260504020447 63 211 3.0 7.0 0.00 0.00 0.00 28 1013.9
20260504020348 63 197 3.0 8.0 0.00 0.00 0.00 28 1013.9
20260504020142 63 178 4.0 12.0 0.00 0.00 0.00 27 1013.9
20260504020120 63 185 4.0 12.0 0.00 0.00 0.00 27 1013.9
20260504020043 64 185 5.0 12.0 0.00 0.00 0.00 27 1013.9
20260504015944 64 207 5.0 12.0 0.00 0.00 0.00 27 1013.9
20260504015742 64 181 5.0 12.0 0.00 0.00 0.00 26 1013.9
20260504015615 64 180 6.0 12.0 0.00 0.00 0.00 26 1013.7
20260504015536 64 217 6.0 12.0 0.00 0.00 0.00 25 1013.7
20260504015437 64 252 6.0 12.0 0.00 0.00 0.00 25 1013.7
20260504015332 64 262 6.0 12.0 0.00 0.00 0.00 25 1013.7
20260504015233 64 235 5.0 12.0 0.00 0.00 0.00 25 1013.7
20260504015216 64 252 5.0 12.0 0.00 0.00 0.00 26 1013.7
20260504015032 64 252 5.0 11.0 0.00 0.00 0.00 26 1013.7
20260504014930 64 234 5.0 11.0 0.00 0.00 0.00 26 1013.7
20260504014823 64 260 4.0 11.0 0.00 0.00 0.00 26 1013.6
20260504014723 63 257 4.0 11.0 0.00 0.00 0.00 26 1013.6
20260504014625 63 273 4.0 11.0 0.00 0.00 0.00 26 1013.6
20260504014603 63 312 4.0 11.0 0.00 0.00 0.00 26 1013.6
20260504014524 63 315 4.0 11.0 0.00 0.00 0.00 26 1013.6
20260504014423 63 287 4.0 10.0 0.00 0.00 0.00 27 1013.6
20260504014321 63 284 4.0 8.0 0.00 0.00 0.00 28 1013.6
20260504014221 63 277 4.0 8.0 0.00 0.00 0.00 27 1013.6
20260504014205 63 302 3.0 8.0 0.00 0.00 0.00 27 1013.6
20260504014019 63 261 3.0 8.0 0.00 0.00 0.00 26 1013.6
20260504013922 63 258 2.0 8.0 0.00 0.00 0.00 27 1013.6
20260504013712 63 284 2.0 8.0 0.00 0.00 0.00 27 1013.6
20260504013623 63 325 1.0 7.0 0.00 0.00 0.00 28 1013.5
20260504013616 63 264 1.0 7.0 0.00 0.00 0.00 28 1013.5
20260504013411 64 65 1.0 4.0 0.00 0.00 0.00 28 1013.5
20260504013306 64 65 1.0 4.0 0.00 0.00 0.00 28 1013.5
20260504013258 64 65 1.0 4.0 0.00 0.00 0.00 28 1013.5
20260504013005 64 65 1.0 4.0 0.00 0.00 0.00 27 1013.5
20260504012907 64 65 2.0 4.0 0.00 0.00 0.00 28 1013.5
20260504012720 64 65 2.0 4.0 0.00 0.00 0.00 27 1013.5
20260504012605 64 65 2.0 4.0 0.00 0.00 0.00 27 1013.5
20260504012359 64 65 2.0 4.0 0.00 0.00 0.00 27 1013.5
20260504012253 64 65 3.0 7.0 0.00 0.00 0.00 27 1013.5
20260504012154 65 65 3.0 7.0 0.00 0.00 0.00 28 1013.5
20260504012107 65 65 3.0 7.0 0.00 0.00 0.00 28 1013.6
20260504012059 65 65 3.0 7.0 0.00 0.00 0.00 27 1013.6
20260504011854 65 65 3.0 9.0 0.00 0.00 0.00 27 1013.5
20260504011749 65 65 3.0 9.0 0.00 0.00 0.00 27 1013.5
20260504011648 65 65 3.0 9.0 0.00 0.00 0.00 27 1013.6
20260504011547 65 68 4.0 9.0 0.00 0.00 0.00 27 1013.6
20260504011526 65 53 4.0 9.0 0.00 0.00 0.00 28 1013.6
20260504011448 65 53 4.0 9.0 0.00 0.00 0.00 27 1013.6
20260504011349 65 59 4.0 9.0 0.00 0.00 0.00 27 1013.6
20260504011159 65 36 4.0 9.0 0.00 0.00 0.00 26 1013.6
20260504011152 65 76 4.0 10.0 0.00 0.00 0.00 26 1013.7
20260504010841 65 53 4.0 10.0 0.00 0.00 0.00 27 1013.7
20260504010738 65 338 5.0 10.0 0.00 0.00 0.00 27 1013.7
20260504010638 66 338 5.0 13.0 0.00 0.00 0.00 27 1013.9
20260504010537 66 355 6.0 13.0 0.00 0.00 0.00 26 1013.7
20260504010515 66 25 6.0 13.0 0.00 0.00 0.00 26 1013.7
20260504010438 66 44 6.0 13.0 0.00 0.00 0.00 26 1013.6
20260504010339 66 45 6.0 13.0 0.00 0.00 0.00 26 1013.7
20260504010130 66 54 6.0 13.0 0.00 0.00 0.00 26 1013.6
20260504010030 66 67 6.0 13.0 0.00 0.00 0.00 25 1013.6
20260504010008 66 51 6.0 13.0 0.00 0.00 0.00 25 1013.6
20260504005930 66 42 6.0 13.0 0.00 0.00 0.00 25 1013.7
20260504005831 66 5 6.0 13.0 0.00 0.00 0.00 25 1013.7
20260504005630 65 323 5.0 12.0 0.00 0.00 0.00 26 1013.7
20260504005503 65 5 5.0 10.0 0.00 0.00 0.00 26 1013.7
20260504005433 65 18 4.0 10.0 0.00 0.00 0.00 26 1013.7
20260504005218 65 22 4.0 10.0 0.00 0.00 0.00 26 1014.0
20260504005117 65 355 4.0 9.0 0.00 0.00 0.00 27 1013.7
20260504005017 65 346 3.0 9.0 0.00 0.00 0.00 27 1013.9
20260504004958 65 355 3.0 9.0 0.00 0.00 0.00 26 1013.9
20260504004918 65 319 4.0 9.0 0.00 0.00 0.00 26 1013.9
20260504004818 65 298 4.0 9.0 0.00 0.00 0.00 27 1013.9
20260504004711 65 15 4.0 9.0 0.00 0.00 0.00 27 1013.9
20260504004611 65 342 4.0 9.0 0.00 0.00 0.00 26 1013.9
20260504004511 65 46 3.0 9.0 0.00 0.00 0.00 26 1013.9
20260504004452 65 46 3.0 9.0 0.00 0.00 0.00 27 1013.9
20260504004411 65 55 3.0 9.0 0.00 0.00 0.00 27 1013.9
20260504004312 65 46 3.0 6.0 0.00 0.00 0.00 26 1013.9
20260504004215 66 40 3.0 6.0 0.00 0.00 0.00 26 1013.9
20260504004007 66 17 2.0 6.0 0.00 0.00 0.00 26 1014.0
20260504003945 66 10 2.0 6.0 0.00 0.00 0.00 26 1013.9
20260504003909 66 49 2.0 8.0 0.00 0.00 0.00 26 1013.9
20260504003806 66 17 3.0 8.0 0.00 0.00 0.00 26 1013.9
20260504003703 66 19 3.0 8.0 0.00 0.00 0.00 25 1013.9
20260504003604 66 0 3.0 8.0 0.00 0.00 0.00 26 1013.9
20260504003546 65 0 3.0 8.0 0.00 0.00 0.00 26 1013.9
20260504003409 65 331 4.0 10.0 0.00 0.00 0.00 27 1013.9
20260504003156 65 331 4.0 10.0 0.00 0.00 0.00 27 1013.9
20260504003053 65 331 4.0 10.0 0.00 0.00 0.00 26 1013.9
20260504002953 65 344 5.0 11.0 0.00 0.00 0.00 26 1013.9
20260504002933 65 37 5.0 11.0 0.00 0.00 0.00 26 1013.9
20260504002854 65 15 5.0 11.0 0.00 0.00 0.00 26 1013.9
20260504002753 65 5 5.0 11.0 0.00 0.00 0.00 27 1014.0
20260504002655 65 10 6.0 11.0 0.00 0.00 0.00 26 1014.0
20260504002448 65 331 6.0 11.0 0.00 0.00 0.00 26 1014.0
20260504002427 65 355 6.0 11.0 0.00 0.00 0.00 26 1014.0
20260504002348 65 323 5.0 11.0 0.00 0.00 0.00 25 1013.9
20260504002247 65 316 5.0 11.0 0.00 0.00 0.00 26 1014.0
20260504002142 65 5 5.0 11.0 0.00 0.00 0.00 27 1014.0
20260504002041 65 348 5.0 11.0 0.00 0.00 0.00 27 1014.0
20260504001942 65 55 5.0 11.0 0.00 0.00 0.00 27 1014.0
20260504001921 65 49 5.0 11.0 0.00 0.00 0.00 27 1014.0
20260504001842 65 16 5.0 11.0 0.00 0.00 0.00 27 1014.0
20260504001741 65 32 5.0 12.0 0.00 0.00 0.00 27 1014.0
20260504001637 65 34 5.0 12.0 0.00 0.00 0.00 27 1014.1
20260504001535 65 24 5.0 12.0 0.00 0.00 0.00 27 1014.1
20260504001436 65 30 4.0 12.0 0.00 0.00 0.00 27 1014.1
20260504001415 65 17 4.0 12.0 0.00 0.00 0.00 27 1014.1
20260504001336 65 5 5.0 12.0 0.00 0.00 0.00 28 1014.2
20260504001236 65 32 5.0 12.0 0.00 0.00 0.00 28 1014.2
20260504001129 65 72 5.0 12.0 0.00 0.00 0.00 28 1014.1
20260504001030 65 5 5.0 12.0 0.00 0.00 0.00 27 1014.2
20260504000930 65 29 5.0 12.0 0.00 0.00 0.00 27 1014.2
20260504000909 65 313 5.0 12.0 0.00 0.00 0.00 27 1014.2
20260504000829 65 17 5.0 12.0 0.00 0.00 0.00 26 1014.2
20260504000730 65 64 5.0 10.0 0.00 0.00 0.00 26 1014.2
20260504000625 65 16 6.0 10.0 0.00 0.00 0.00 27 1014.2
20260504000525 65 13 6.0 10.0 0.00 0.00 0.00 26 1014.2
20260504000425 65 35 6.0 10.0 0.00 0.00 0.00 26 1014.2
20260504000402 65 17 6.0 10.0 0.00 0.00 0.00 26 1014.2
20260504000333 65 0 6.0 10.0 0.00 0.00 0.00 26 1014.1
20260504000018 66 40 6.0 10.0 0.00 0.00 0.00 26 1014.1
20260503235929 66 37 6.0 10.0 0.00 0.00 0.00 26 1014.1
20260503235922 66 49 6.0 10.0 0.00 0.00 0.00 26 1014.1
20260503235717 66 67 6.0 10.0 0.00 0.00 0.00 26 1014.2
20260503235615 66 59 6.0 10.0 0.00 0.00 0.00 26 1014.2
20260503235515 66 15 5.0 10.0 0.00 0.00 0.00 26 1014.2
20260503235416 66 23 5.0 10.0 0.00 0.00 0.00 27 1014.2
20260503235352 66 341 5.0 10.0 0.00 0.00 0.00 27 1014.2
20260503235314 66 21 5.0 10.0 0.00 0.00 0.00 26 1014.2
20260503235217 66 349 5.0 10.0 0.00 0.00 0.00 26 1014.2
20260503235010 66 29 5.0 10.0 0.00 0.00 0.00 27 1014.3
20260503234910 66 355 5.0 10.0 0.00 0.00 0.00 26 1014.3
20260503234844 66 0 5.0 10.0 0.00 0.00 0.00 26 1014.3
20260503234809 66 28 5.0 10.0 0.00 0.00 0.00 26 1014.3
20260503234705 66 26 5.0 11.0 0.00 0.00 0.00 26 1014.5
20260503234559 66 13 5.0 11.0 0.00 0.00 0.00 27 1014.5
20260503234501 66 34 5.0 11.0 0.00 0.00 0.00 26 1014.5
20260503234400 66 355 5.0 11.0 0.00 0.00 0.00 27 1014.6
20260503234339 66 355 5.0 11.0 0.00 0.00 0.00 27 1014.7
20260503234300 66 355 5.0 11.0 0.00 0.00 0.00 27 1014.7
20260503234159 66 322 5.0 11.0 0.00 0.00 0.00 26 1014.6
20260503234053 66 315 6.0 11.0 0.00 0.00 0.00 27 1014.7
20260503233954 66 291 6.0 13.0 0.00 0.00 0.00 27 1014.7
20260503233904 66 307 6.0 13.0 0.00 0.00 0.00 27 1014.7
20260503233857 66 355 7.0 13.0 0.00 0.00 0.00 27 1014.7
20260503233653 66 348 7.0 13.0 0.00 0.00 0.00 27 1014.6
20260503233455 66 5 8.0 13.0 0.00 0.00 0.00 27 1014.5
20260503233331 66 24 8.0 13.0 0.00 0.00 0.00 27 1014.3
20260503233248 66 330 8.0 13.0 0.00 0.00 0.00 27 1014.3
20260503233147 66 13 8.0 13.0 0.00 0.00 0.00 27 1014.2
20260503233042 66 5 8.0 13.0 0.00 0.00 0.00 26 1014.1
20260503232942 66 15 8.0 13.0 0.00 0.00 0.00 25 1014.0
20260503232841 66 65 9.0 13.0 0.00 0.00 0.00 25 1014.0
20260503232832 66 32 9.0 13.0 0.00 0.00 0.00 25 1014.0
20260503232742 66 40 9.0 16.0 0.00 0.00 0.00 25 1013.9
20260503232641 66 52 9.0 16.0 0.00 0.00 0.00 25 1013.9
20260503232542 66 34 8.0 16.0 0.00 0.00 0.00 25 1013.9
20260503232338 66 41 9.0 21.0 0.00 0.00 0.00 26 1013.9
20260503232331 66 53 9.0 21.0 0.00 0.00 0.00 26 1013.9
20260503232236 66 0 9.0 21.0 0.00 0.00 0.00 26 1013.9
20260503232136 66 24 9.0 21.0 0.00 0.00 0.00 26 1013.9
20260503232047 66 11 9.0 21.0 0.00 0.00 0.00 27 1013.9
20260503231829 67 11 9.0 21.0 0.00 0.00 0.00 27 1013.9
20260503231745 67 16 9.0 21.0 0.00 0.00 0.00 27 1013.9
20260503231331 67 30 12.0 24.0 0.00 0.00 0.00 25 1013.7
20260503231323 67 32 12.0 24.0 0.00 0.00 0.00 25 1013.7
20260503231223 67 355 12.0 24.0 0.00 0.00 0.00 24 1013.9
20260503231124 67 44 12.0 24.0 0.00 0.00 0.00 24 1013.9
20260503230938 67 5 12.0 24.0 0.00 0.00 0.00 24 1013.9
20260503230818 67 335 12.0 24.0 0.00 0.00 0.00 24 1014.0
20260503230724 67 24 12.0 24.0 0.00 0.00 0.00 24 1014.1
20260503230512 68 9 10.0 24.0 0.00 0.00 0.00 24 1014.1
20260503230437 68 332 9.0 24.0 0.00 0.00 0.00 24 1014.1
20260503230311 68 0 8.0 21.0 0.00 0.00 0.00 23 1014.2
20260503230211 68 338 7.0 21.0 0.00 0.00 0.00 22 1014.1
20260503230121 68 10 7.0 20.0 0.00 0.00 0.00 21 1014.1
20260503225828 68 355 5.0 14.0 0.00 0.00 0.00 21 1014.1
20260503225813 68 22 5.0 11.0 0.00 0.00 0.00 21 1014.1
20260503225605 68 336 5.0 10.0 0.00 0.00 0.00 22 1014.1
20260503225459 68 338 5.0 10.0 0.00 0.00 0.00 21 1014.1
20260503225359 68 36 5.0 10.0 0.00 0.00 0.00 22 1014.1
20260503225329 68 17 5.0 10.0 0.00 0.00 0.00 21 1014.1
20260503225259 68 342 5.0 10.0 0.00 0.00 0.00 21 1014.1
20260503225159 68 55 5.0 10.0 0.00 0.00 0.00 21 1014.2
20260503225059 69 26 5.0 10.0 0.00 0.00 0.00 20 1014.1
20260503224953 69 47 5.0 9.0 0.00 0.00 0.00 20 1014.1
20260503224854 69 44 4.0 9.0 0.00 0.00 0.00 20 1014.1
20260503224828 69 45 4.0 9.0 0.00 0.00 0.00 20 1014.1
20260503224801 69 36 4.0 10.0 0.00 0.00 0.00 20 1014.0
20260503224553 69 43 5.0 14.0 0.00 0.00 0.00 21 1014.1
20260503224447 69 36 4.0 14.0 0.00 0.00 0.00 21 1014.0
20260503224436 69 36 4.0 14.0 0.00 0.00 0.00 22 1013.9
20260503224247 69 16 4.0 14.0 0.00 0.00 0.00 21 1014.0
20260503224147 69 5 3.0 14.0 0.00 0.00 0.00 20 1014.0
20260503224048 69 32 3.0 14.0 0.00 0.00 0.00 20 1014.0
20260503223948 69 24 3.0 14.0 0.00 0.00 0.00 20 1013.9
20260503223936 70 44 3.0 14.0 0.00 0.00 0.00 20 1013.7
20260503223746 70 55 2.0 14.0 0.00 0.00 0.00 21 1013.9
20260503223645 70 138 1.0 8.0 0.00 0.00 0.00 20 1013.9
20260503223541 70 107 1.0 6.0 0.00 0.00 0.00 19 1013.9
20260503223444 70 323 2.0 5.0 0.00 0.00 0.00 21 1013.9
20260503223329 70 10 2.0 6.0 0.00 0.00 0.00 21 1013.9
20260503223237 70 34 2.0 7.0 0.00 0.00 0.00 22 1013.9
20260503223135 70 34 3.0 8.0 0.00 0.00 0.00 21 1013.9
20260503223034 70 311 3.0 8.0 0.00 0.00 0.00 19 1013.9
20260503222942 70 311 4.0 11.0 0.00 0.00 0.00 20 1013.9
20260503222936 70 311 5.0 11.0 0.00 0.00 0.00 20 1014.0
20260503222731 70 311 5.0 11.0 0.00 0.00 0.00 19 1014.0
20260503222629 70 311 5.0 11.0 0.00 0.00 0.00 19 1014.0
20260503222530 70 265 5.0 11.0 0.00 0.00 0.00 20 1014.1
20260503222429 70 273 5.0 11.0 0.00 0.00 0.00 21 1014.1
20260503222334 70 257 5.0 11.0 0.00 0.00 0.00 21 1014.1
20260503222329 70 250 5.0 11.0 0.00 0.00 0.00 21 1014.1
20260503222230 69 244 5.0 11.0 0.00 0.00 0.00 21 1014.1
20260503222129 69 259 6.0 15.0 0.00 0.00 0.00 22 1014.2
20260503222029 69 229 5.0 15.0 0.00 0.00 0.00 21 1014.1
20260503221929 69 271 5.0 15.0 0.00 0.00 0.00 20 1014.1
20260503221833 69 207 6.0 15.0 0.00 0.00 0.00 20 1014.1
20260503221829 69 215 6.0 15.0 0.00 0.00 0.00 20 1014.1
20260503221729 69 207 6.0 16.0 0.00 0.00 0.00 19 1014.1
20260503221630 69 191 8.0 26.0 0.00 0.00 0.00 20 1014.1
20260503221546 69 259 8.0 26.0 0.00 0.00 0.00 20 1014.2
20260503221432 69 208 8.0 26.0 0.00 0.00 0.00 19 1014.2
20260503221228 69 240 8.0 26.0 0.00 0.00 0.00 19 1014.2
20260503221127 69 260 8.0 26.0 0.00 0.00 0.00 20 1014.3
20260503221034 69 257 8.0 26.0 0.00 0.00 0.00 20 1014.2
20260503220825 69 346 8.0 26.0 0.00 0.00 0.00 19 1014.6
20260503220732 69 298 7.0 26.0 0.00 0.00 0.00 20 1014.7
20260503220521 69 273 7.0 16.0 0.00 0.00 0.00 20 1014.7
20260503220421 69 312 7.0 16.0 0.00 0.00 0.00 20 1014.5
20260503220329 69 286 7.0 16.0 0.00 0.00 0.00 20 1014.6
20260503220322 69 290 7.0 16.0 0.00 0.00 0.00 20 1014.6
20260503220221 69 291 7.0 16.0 0.00 0.00 0.00 19 1014.7
20260503220121 69 279 7.0 16.0 0.00 0.00 0.00 19 1014.5
20260503220021 69 207 7.0 16.0 0.00 0.00 0.00 20 1014.6
20260503215920 69 181 7.0 16.0 0.00 0.00 0.00 20 1014.6
20260503215829 69 232 8.0 16.0 0.00 0.00 0.00 19 1014.9
20260503215819 69 249 8.0 22.0 0.00 0.00 0.00 20 1014.9
20260503215719 69 246 8.0 22.0 0.00 0.00 0.00 20 1014.8
20260503215619 69 254 9.0 22.0 0.00 0.00 0.00 19 1014.8
20260503215520 69 261 9.0 22.0 0.00 0.00 0.00 20 1014.8
20260503215419 69 168 9.0 22.0 0.00 0.00 0.00 20 1014.6
20260503215329 70 192 9.0 22.0 0.00 0.00 0.00 19 1014.6
20260503215316 70 171 9.0 22.0 0.00 0.00 0.00 19 1014.6